Time,TemperatureF,DewpointF,PressureIn,WindDirection,WindDirectionDegrees,WindSpeedMPH,WindSpeedGustMPH,Humidity,HourlyPrecipIn,Conditions,Clouds,dailyrainin,SolarRadiationWatts/m^2,SoftwareType,DateUTC
2013-10-19 00:01:00,42.4,40.0,28.97,WSW,255,0.0,0.0,91,0.00,CLR,FEW,0.00,0.0,WeatherDisplay:10.37,2013-10-18 22:01:00,
2013-10-19 00:06:00,42.4,40.0,28.97,WSW,255,0.0,0.0,91,0.00,CLR,FEW,0.00,0.0,WeatherDisplay:10.37,2013-10-18 22:06:00,
2013-10-19 00:11:00,42.4,40.0,29.00,WSW,255,0.0,0.0,91,0.00,CLR,FEW,0.00,0.0,WeatherDisplay:10.37,2013-10-18 22:11:00,
2013-10-19 00:16:00,42.4,40.0,29.00,WSW,255,0.0,0.0,91,0.00,CLR,FEW,0.00,0.0,WeatherDisplay:10.37,2013-10-18 22:16:00,
2013-10-19 00:21:00,42.4,40.0,29.00,WSW,255,0.0,0.0,91,0.00,CLR,FEW,0.00,0.0,WeatherDisplay:10.37,2013-10-18 22:21:00,
2013-10-19 00:26:00,42.4,40.0,29.00,WSW,255,0.0,0.0,91,0.00,CLR,FEW,0.00,0.0,WeatherDisplay:10.37,2013-10-18 22:26:00,
2013-10-19 00:31:00,42.4,40.0,29.00,WSW,255,0.0,0.0,91,0.00,CLR,FEW,0.00,0.0,WeatherDisplay:10.37,2013-10-18 22:31:00,
2013-10-19 00:36:00,42.4,40.0,29.00,WSW,255,0.0,0.0,91,0.00,CLR,FEW,0.00,0.0,WeatherDisplay:10.37,2013-10-18 22:36:00,
2013-10-19 00:41:00,42.4,40.0,29.00,WSW,255,0.0,0.0,91,0.00,CLR,FEW,0.00,0.0,WeatherDisplay:10.37,2013-10-18 22:41:00,
2013-10-19 00:46:00,42.4,40.0,29.00,WSW,255,0.0,0.0,91,0.00,CLR,FEW,0.00,0.0,WeatherDisplay:10.37,2013-10-18 22:46:00,
2013-10-19 00:51:00,42.4,40.0,29.00,WSW,255,0.0,0.0,91,0.00,CLR,FEW,0.00,0.0,WeatherDisplay:10.37,2013-10-18 22:51:00,
2013-10-19 00:56:00,39.0,37.4,29.00,WSW,250,0.0,0.0,94,0.00,CLR,FEW,0.00,0.0,WeatherDisplay:10.37,2013-10-18 22:56:00,
2013-10-19 01:01:00,38.7,37.1,29.00,WSW,250,0.0,0.0,94,0.00,CLR,FEW,0.00,0.0,WeatherDisplay:10.37,2013-10-18 23:01:00,
2013-10-19 01:06:00,38.7,37.1,29.00,WSW,250,0.0,0.0,94,0.00,CLR,FEW,0.00,0.0,WeatherDisplay:10.37,2013-10-18 23:06:00,
2013-10-19 01:11:00,39.0,37.4,29.00,WSW,250,0.0,0.0,94,0.00,CLR,FEW,0.00,0.0,WeatherDisplay:10.37,2013-10-18 23:11:00,
2013-10-19 01:16:00,38.5,36.9,29.00,WSW,250,0.0,0.0,94,0.00,CLR,FEW,0.00,0.0,WeatherDisplay:10.37,2013-10-18 23:16:00,
2013-10-19 01:21:00,38.5,36.9,29.00,WSW,250,0.0,0.0,94,0.00,CLR,FEW,0.00,0.0,WeatherDisplay:10.37,2013-10-18 23:21:00,
2013-10-19 01:26:00,37.9,36.4,29.00,West,275,0.0,0.0,94,0.00,CLR,FEW,0.00,0.0,WeatherDisplay:10.37,2013-10-18 23:26:00,
2013-10-19 01:31:00,37.9,36.4,29.00,West,275,0.0,0.0,94,0.00,CLR,FEW,0.00,0.0,WeatherDisplay:10.37,2013-10-18 23:31:00,
2013-10-19 01:36:00,38.5,36.9,29.00,West,275,0.0,0.0,94,0.00,CLR,FEW,0.00,0.0,WeatherDisplay:10.37,2013-10-18 23:36:00,
2013-10-19 01:41:00,38.1,36.5,29.00,West,275,0.0,0.0,94,0.00,CLR,FEW,0.00,0.0,WeatherDisplay:10.37,2013-10-18 23:41:00,
2013-10-19 01:46:00,38.7,37.1,29.00,West,275,0.0,0.0,94,0.00,CLR,FEW,0.00,0.0,WeatherDisplay:10.37,2013-10-18 23:46:00,
2013-10-19 01:51:00,37.6,36.3,29.00,SW,215,0.0,0.0,95,0.00,CLR,FEW,0.00,0.0,WeatherDisplay:10.37,2013-10-18 23:51:00,
2013-10-19 01:56:00,37.6,36.3,29.00,SW,215,0.0,0.0,95,0.00,CLR,FEW,0.00,0.0,WeatherDisplay:10.37,2013-10-18 23:56:00,
2013-10-19 02:01:00,37.6,36.3,29.00,SW,215,0.0,0.0,95,0.00,CLR,FEW,0.00,0.0,WeatherDisplay:10.37,2013-10-19 00:01:00,
2013-10-19 02:06:00,37.6,36.3,29.00,SW,215,0.0,0.0,95,0.00,CLR,FEW,0.00,0.0,WeatherDisplay:10.37,2013-10-19 00:06:00,
2013-10-19 02:11:00,37.6,36.3,29.00,SW,215,0.0,0.0,95,0.00,CLR,FEW,0.00,0.0,WeatherDisplay:10.37,2013-10-19 00:11:00,
2013-10-19 02:16:00,37.6,36.3,29.00,SW,215,0.0,0.0,95,0.00,CLR,FEW,0.00,0.0,WeatherDisplay:10.37,2013-10-19 00:16:00,
2013-10-19 02:21:00,37.6,36.3,29.00,SW,215,0.0,0.0,95,0.00,CLR,FEW,0.00,0.0,WeatherDisplay:10.37,2013-10-19 00:21:00,
2013-10-19 02:26:00,37.6,36.3,29.00,SW,215,0.0,0.0,95,0.00,CLR,FEW,0.00,0.0,WeatherDisplay:10.37,2013-10-19 00:26:00,
2013-10-19 02:31:00,37.6,36.3,29.00,SW,215,0.0,0.0,95,0.00,CLR,FEW,0.00,0.0,WeatherDisplay:10.37,2013-10-19 00:31:00,
2013-10-19 02:36:00,37.6,36.3,29.00,WSW,240,0.0,0.0,95,0.00,CLR,FEW,0.00,0.0,WeatherDisplay:10.37,2013-10-19 00:36:00,
2013-10-19 02:41:00,37.6,36.3,29.00,WSW,240,0.0,0.0,95,0.00,CLR,FEW,0.00,0.0,WeatherDisplay:10.37,2013-10-19 00:41:00,
2013-10-19 02:46:00,37.2,36.2,29.00,WSW,250,0.0,0.0,96,0.00,CLR,FEW,0.00,0.0,WeatherDisplay:10.37,2013-10-19 00:46:00,
2013-10-19 02:51:00,37.2,36.2,29.00,WSW,250,0.0,0.0,96,0.00,CLR,FEW,0.00,0.0,WeatherDisplay:10.37,2013-10-19 00:51:00,
2013-10-19 02:56:00,37.0,36.0,29.00,SSW,195,0.0,0.0,96,0.00,CLR,FEW,0.00,0.0,WeatherDisplay:10.37,2013-10-19 00:56:00,
2013-10-19 03:01:00,37.0,36.0,29.00,SSW,195,0.0,0.0,96,0.00,CLR,FEW,0.00,0.0,WeatherDisplay:10.37,2013-10-19 01:01:00,
2013-10-19 03:06:00,37.0,36.0,29.00,SSW,195,0.0,0.0,96,0.00,CLR,FEW,0.00,0.0,WeatherDisplay:10.37,2013-10-19 01:06:00,
2013-10-19 03:11:00,37.2,36.2,29.00,SSW,195,0.0,0.0,96,0.00,CLR,FEW,0.00,0.0,WeatherDisplay:10.37,2013-10-19 01:11:00,
2013-10-19 03:16:00,37.2,36.2,29.00,SSW,200,0.0,0.0,96,0.00,CLR,FEW,0.00,0.0,WeatherDisplay:10.37,2013-10-19 01:16:00,
2013-10-19 03:21:00,37.4,36.4,28.97,South,190,0.0,0.0,96,0.00,CLR,FEW,0.00,0.0,WeatherDisplay:10.37,2013-10-19 01:21:00,
2013-10-19 03:26:00,37.2,36.2,28.97,SSW,200,0.0,0.0,96,0.00,CLR,FEW,0.00,0.0,WeatherDisplay:10.37,2013-10-19 01:26:00,
2013-10-19 03:31:00,37.2,36.2,28.97,SSW,200,0.0,0.0,96,0.00,CLR,FEW,0.00,0.0,WeatherDisplay:10.37,2013-10-19 01:31:00,
2013-10-19 03:36:00,37.0,36.0,28.97,SSW,195,1.1,1.5,96,0.00,CLR,FEW,0.00,0.0,WeatherDisplay:10.37,2013-10-19 01:36:00,
2013-10-19 03:41:00,36.9,35.8,28.97,SSW,195,0.0,0.0,96,0.00,CLR,FEW,0.00,0.0,WeatherDisplay:10.37,2013-10-19 01:41:00,
2013-10-19 03:46:00,37.0,36.0,28.97,SSW,200,0.0,0.0,96,0.00,CLR,FEW,0.00,0.0,WeatherDisplay:10.37,2013-10-19 01:46:00,
2013-10-19 03:51:00,37.8,36.7,29.00,SSW,200,0.0,0.4,96,0.00,CLR,FEW,0.00,0.0,WeatherDisplay:10.37,2013-10-19 01:51:00,
2013-10-19 03:56:00,37.6,36.5,29.00,SSW,200,0.0,0.0,96,0.00,CLR,FEW,0.00,0.0,WeatherDisplay:10.37,2013-10-19 01:56:00,
2013-10-19 04:01:00,37.4,36.4,29.00,SSW,200,0.0,0.0,96,0.00,CLR,FEW,0.00,0.0,WeatherDisplay:10.37,2013-10-19 02:01:00,
2013-10-19 04:06:00,37.4,36.4,29.00,SSW,200,0.0,0.0,96,0.00,CLR,FEW,0.00,0.0,WeatherDisplay:10.37,2013-10-19 02:06:00,
2013-10-19 04:11:00,36.9,35.8,28.97,SSW,200,0.0,0.0,96,0.00,CLR,FEW,0.00,0.0,WeatherDisplay:10.37,2013-10-19 02:11:00,
2013-10-19 04:16:00,36.0,34.9,28.97,SSW,200,0.0,0.0,96,0.00,CLR,FEW,0.00,0.0,WeatherDisplay:10.37,2013-10-19 02:16:00,
2013-10-19 04:21:00,36.5,35.5,28.97,SW,230,1.1,1.1,96,0.00,CLR,FEW,0.00,0.0,WeatherDisplay:10.37,2013-10-19 02:21:00,
2013-10-19 04:26:00,36.0,34.9,28.97,SW,235,0.0,0.0,96,0.00,CLR,FEW,0.00,0.0,WeatherDisplay:10.37,2013-10-19 02:26:00,
2013-10-19 04:31:00,36.0,34.9,28.97,SW,235,0.0,0.0,96,0.00,CLR,FEW,0.00,0.0,WeatherDisplay:10.37,2013-10-19 02:31:00,
2013-10-19 04:36:00,36.1,35.1,29.00,SW,230,0.0,0.6,96,0.00,CLR,FEW,0.00,0.0,WeatherDisplay:10.37,2013-10-19 02:36:00,
2013-10-19 04:41:00,36.3,35.3,29.00,SW,230,0.0,0.0,96,0.00,CLR,FEW,0.00,0.0,WeatherDisplay:10.37,2013-10-19 02:41:00,
2013-10-19 04:46:00,35.8,34.8,29.00,South,170,1.1,1.1,96,0.00,CLR,FEW,0.00,0.0,WeatherDisplay:10.37,2013-10-19 02:46:00,
2013-10-19 04:51:00,35.6,34.6,28.97,South,170,0.0,0.0,96,0.00,CLR,FEW,0.00,0.0,WeatherDisplay:10.37,2013-10-19 02:51:00,
2013-10-19 04:56:00,36.5,35.5,28.97,SW,225,1.3,1.3,96,0.00,CLR,FEW,0.00,0.0,WeatherDisplay:10.37,2013-10-19 02:56:00,
2013-10-19 05:01:00,36.7,35.9,28.97,SW,225,0.6,0.6,97,0.00,CLR,FEW,0.00,0.0,WeatherDisplay:10.37,2013-10-19 03:01:00,
2013-10-19 05:06:00,36.7,35.9,28.97,SW,225,0.0,0.6,97,0.00,CLR,FEW,0.00,0.0,WeatherDisplay:10.37,2013-10-19 03:06:00,
2013-10-19 05:11:00,36.1,35.1,28.97,South,180,1.1,1.1,96,0.00,CLR,FEW,0.00,0.0,WeatherDisplay:10.37,2013-10-19 03:11:00,
2013-10-19 05:16:00,36.1,35.1,28.97,South,185,1.1,1.3,96,0.00,CLR,FEW,0.00,0.0,WeatherDisplay:10.37,2013-10-19 03:16:00,
2013-10-19 05:21:00,35.8,34.8,28.97,South,185,0.0,0.0,96,0.00,CLR,FEW,0.00,0.0,WeatherDisplay:10.37,2013-10-19 03:21:00,
2013-10-19 05:26:00,35.8,34.8,28.97,South,185,0.0,0.0,96,0.00,CLR,FEW,0.00,0.0,WeatherDisplay:10.37,2013-10-19 03:26:00,
2013-10-19 05:31:00,35.8,34.8,28.97,South,185,0.0,0.0,96,0.00,CLR,FEW,0.00,0.0,WeatherDisplay:10.37,2013-10-19 03:31:00,
2013-10-19 05:36:00,35.2,34.2,28.97,South,185,0.0,0.0,96,0.00,CLR,FEW,0.00,0.0,WeatherDisplay:10.37,2013-10-19 03:36:00,
2013-10-19 05:41:00,34.7,33.7,28.97,South,185,0.0,0.0,96,0.00,CLR,FEW,0.00,0.0,WeatherDisplay:10.37,2013-10-19 03:41:00,
2013-10-19 05:46:00,34.3,33.6,28.97,South,185,0.0,0.0,97,0.00,CLR,FEW,0.00,0.0,WeatherDisplay:10.37,2013-10-19 03:46:00,
2013-10-19 05:51:00,33.8,32.8,28.97,South,185,0.0,0.0,96,0.00,CLR,FEW,0.00,0.0,WeatherDisplay:10.37,2013-10-19 03:51:00,
2013-10-19 05:56:00,33.3,32.5,28.97,South,185,0.0,0.0,97,0.00,CLR,FEW,0.00,0.0,WeatherDisplay:10.37,2013-10-19 03:56:00,
2013-10-19 06:01:00,33.3,32.5,28.97,South,185,0.0,0.0,97,0.00,CLR,FEW,0.00,0.0,WeatherDisplay:10.37,2013-10-19 04:01:00,
2013-10-19 06:02:00,33.3,32.5,28.97,South,185,0.0,0.0,97,0.00,CLR,FEW,0.00,0.0,WeatherDisplay:10.37,2013-10-19 04:02:00,
2013-10-19 06:07:00,33.1,32.3,28.97,South,185,0.0,0.0,97,0.00,CLR,FEW,0.00,0.0,WeatherDisplay:10.37,2013-10-19 04:07:00,
2013-10-19 06:12:00,33.1,32.3,28.97,South,185,0.0,0.0,97,0.00,CLR,FEW,0.00,0.0,WeatherDisplay:10.37,2013-10-19 04:12:00,
2013-10-19 06:17:00,33.3,32.5,28.97,South,185,0.0,0.0,97,0.00,CLR,FEW,0.00,0.0,WeatherDisplay:10.37,2013-10-19 04:17:00,
2013-10-19 06:22:00,33.6,32.9,28.97,South,185,0.0,0.0,97,0.00,CLR,FEW,0.00,0.0,WeatherDisplay:10.37,2013-10-19 04:22:00,
2013-10-19 06:27:00,33.3,32.5,28.97,South,185,0.0,0.0,97,0.00,CLR,FEW,0.00,0.0,WeatherDisplay:10.37,2013-10-19 04:27:00,
2013-10-19 06:32:00,33.3,32.5,28.97,South,185,0.0,0.0,97,0.00,CLR,FEW,0.00,0.0,WeatherDisplay:10.37,2013-10-19 04:32:00,
2013-10-19 06:37:00,33.3,32.5,28.97,South,185,0.0,0.0,97,0.00,CLR,FEW,0.00,0.0,WeatherDisplay:10.37,2013-10-19 04:37:00,
2013-10-19 06:42:00,33.3,32.5,28.97,South,185,0.0,0.0,97,0.00,CLR,FEW,0.00,0.0,WeatherDisplay:10.37,2013-10-19 04:42:00,
2013-10-19 06:47:00,32.9,32.1,28.97,South,185,0.0,0.0,97,0.00,CLR,FEW,0.00,0.0,WeatherDisplay:10.37,2013-10-19 04:47:00,
2013-10-19 06:52:00,32.7,32.0,28.97,South,185,0.0,0.0,97,0.00,CLR,FEW,0.00,0.0,WeatherDisplay:10.37,2013-10-19 04:52:00,
2013-10-19 06:57:00,33.1,32.3,28.97,South,185,0.0,0.0,97,0.00,CLR,FEW,0.00,0.0,WeatherDisplay:10.37,2013-10-19 04:57:00,
2013-10-19 07:02:00,33.3,32.5,28.97,South,185,0.0,0.0,97,0.00,OVC,FEW,0.00,0.0,WeatherDisplay:10.37,2013-10-19 05:02:00,
2013-10-19 07:07:00,32.7,32.0,28.97,South,185,0.0,0.0,97,0.00,OVC,FEW,0.00,0.0,WeatherDisplay:10.37,2013-10-19 05:07:00,
2013-10-19 07:12:00,32.7,32.0,28.97,South,185,0.0,0.0,97,0.00,OVC,FEW,0.00,0.0,WeatherDisplay:10.37,2013-10-19 05:12:00,
2013-10-19 07:17:00,32.4,31.6,28.97,South,185,0.0,0.0,97,0.00,OVC,FEW,0.00,0.0,WeatherDisplay:10.37,2013-10-19 05:17:00,
2013-10-19 07:22:00,32.5,31.8,28.97,South,185,0.0,0.0,97,0.00,OVC,FEW,0.00,0.0,WeatherDisplay:10.37,2013-10-19 05:22:00,
2013-10-19 07:27:00,32.7,32.0,28.97,South,185,0.0,0.0,97,0.00,OVC,FEW,0.00,0.0,WeatherDisplay:10.37,2013-10-19 05:27:00,
2013-10-19 07:32:00,32.9,32.1,28.97,South,185,0.0,0.0,97,0.00,OVC,FEW,0.00,0.0,WeatherDisplay:10.37,2013-10-19 05:32:00,
2013-10-19 07:37:00,32.9,32.1,28.97,South,185,0.0,0.0,97,0.00,OVC,FEW,0.00,0.0,WeatherDisplay:10.37,2013-10-19 05:37:00,
2013-10-19 07:42:00,33.3,32.5,28.97,South,185,0.0,0.0,97,0.00,OVC,FEW,0.00,0.0,WeatherDisplay:10.37,2013-10-19 05:42:00,
2013-10-19 07:47:00,33.4,32.7,28.97,South,185,0.0,0.0,97,0.00,OVC,FEW,0.00,0.0,WeatherDisplay:10.37,2013-10-19 05:47:00,
2013-10-19 07:52:00,33.8,33.0,28.97,South,185,0.0,0.0,97,0.00,OVC,FEW,0.00,0.0,WeatherDisplay:10.37,2013-10-19 05:52:00,
2013-10-19 07:57:00,34.0,33.2,28.97,South,185,0.0,0.0,97,0.00,OVC,FEW,0.00,0.0,WeatherDisplay:10.37,2013-10-19 05:57:00,
2013-10-19 08:02:00,34.2,33.4,28.97,South,185,0.0,0.0,97,0.00,OVC,FEW,0.00,0.0,WeatherDisplay:10.37,2013-10-19 06:02:00,
2013-10-19 08:07:00,34.3,33.6,29.00,South,185,0.0,0.0,97,0.00,OVC,FEW,0.00,0.0,WeatherDisplay:10.37,2013-10-19 06:07:00,
2013-10-19 08:12:00,34.3,33.6,29.00,South,185,0.0,0.0,97,0.00,OVC,FEW,0.00,0.0,WeatherDisplay:10.37,2013-10-19 06:12:00,
2013-10-19 08:17:00,34.5,33.8,29.00,South,185,0.0,0.0,97,0.00,OVC,FEW,0.00,0.0,WeatherDisplay:10.37,2013-10-19 06:17:00,
2013-10-19 08:22:00,35.1,34.3,28.97,South,180,0.0,0.0,97,0.00,OVC,FEW,0.00,0.0,WeatherDisplay:10.37,2013-10-19 06:22:00,
2013-10-19 08:27:00,35.2,34.5,28.97,South,180,0.0,0.0,97,0.00,OVC,FEW,0.00,0.0,WeatherDisplay:10.37,2013-10-19 06:27:00,
2013-10-19 08:32:00,36.0,35.2,28.97,South,180,0.0,0.0,97,0.00,OVC,FEW,0.00,0.0,WeatherDisplay:10.37,2013-10-19 06:32:00,
2013-10-19 08:37:00,36.0,35.2,28.97,South,180,0.0,0.0,97,0.00,OVC,FEW,0.00,0.0,WeatherDisplay:10.37,2013-10-19 06:37:00,
2013-10-19 08:42:00,36.3,35.6,28.97,South,180,0.0,0.0,97,0.00,OVC,FEW,0.00,0.0,WeatherDisplay:10.37,2013-10-19 06:42:00,
2013-10-19 08:47:00,36.9,36.1,28.97,South,180,1.1,1.1,97,0.00,OVC,FEW,0.00,0.0,WeatherDisplay:10.37,2013-10-19 06:47:00,
2013-10-19 08:52:00,36.9,36.1,28.97,South,180,0.0,0.4,97,0.00,OVC,FEW,0.00,0.0,WeatherDisplay:10.37,2013-10-19 06:52:00,
2013-10-19 08:57:00,37.2,36.4,28.97,SSE,160,2.3,2.3,97,0.00,OVC,FEW,0.00,0.0,WeatherDisplay:10.37,2013-10-19 06:57:00,
2013-10-19 09:02:00,37.6,36.8,28.97,SSE,155,2.3,2.3,97,0.00,OVC,FEW,0.00,0.0,WeatherDisplay:10.37,2013-10-19 07:02:00,
2013-10-19 09:07:00,37.6,36.8,29.00,South,170,1.1,1.1,97,0.00,OVC,FEW,0.00,0.0,WeatherDisplay:10.37,2013-10-19 07:07:00,
2013-10-19 09:12:00,37.6,36.8,29.00,South,170,1.1,1.1,97,0.00,OVC,FEW,0.00,0.0,WeatherDisplay:10.37,2013-10-19 07:12:00,
2013-10-19 09:17:00,37.6,36.8,29.00,South,170,2.3,2.4,97,0.00,OVC,FEW,0.00,0.0,WeatherDisplay:10.37,2013-10-19 07:17:00,
2013-10-19 09:22:00,37.9,37.2,29.00,South,170,1.1,1.3,97,0.00,OVC,FEW,0.00,0.0,WeatherDisplay:10.37,2013-10-19 07:22:00,
2013-10-19 09:27:00,38.1,37.3,29.00,South,170,2.3,2.3,97,0.00,OVC,FEW,0.00,0.0,WeatherDisplay:10.37,2013-10-19 07:27:00,
2013-10-19 09:32:00,38.5,37.7,29.00,South,170,0.0,0.0,97,0.00,OVC,FEW,0.00,0.0,WeatherDisplay:10.37,2013-10-19 07:32:00,
2013-10-19 09:37:00,38.5,37.7,29.00,South,170,0.0,0.0,97,0.00,OVC,FEW,0.00,0.0,WeatherDisplay:10.37,2013-10-19 07:37:00,
2013-10-19 09:42:00,38.8,38.1,29.00,South,180,2.3,2.3,97,0.00,OVC,FEW,0.00,0.0,WeatherDisplay:10.37,2013-10-19 07:42:00,
2013-10-19 09:47:00,39.4,38.6,29.00,South,180,2.3,2.3,97,0.00,OVC,FEW,0.00,0.0,WeatherDisplay:10.37,2013-10-19 07:47:00,
2013-10-19 09:52:00,39.9,39.1,28.97,South,175,3.5,3.5,97,0.00,OVC,FEW,0.00,0.0,WeatherDisplay:10.37,2013-10-19 07:52:00,
2013-10-19 09:57:00,40.8,40.0,28.97,SSE,165,2.3,2.3,97,0.00,OVC,FEW,0.00,0.0,WeatherDisplay:10.37,2013-10-19 07:57:00,
2013-10-19 10:02:00,41.4,40.6,28.97,SSE,165,3.5,3.8,97,0.00,OVC,FEW,0.00,0.0,WeatherDisplay:10.37,2013-10-19 08:02:00,
2013-10-19 10:07:00,42.1,41.3,28.97,SSE,155,3.5,3.8,97,0.00,OVC,FEW,0.00,0.0,WeatherDisplay:10.37,2013-10-19 08:07:00,
2013-10-19 10:12:00,42.1,41.3,28.97,SSE,155,3.5,3.8,97,0.00,OVC,FEW,0.00,0.0,WeatherDisplay:10.37,2013-10-19 08:12:00,
2013-10-19 10:17:00,42.8,42.0,28.97,East,95,3.5,3.5,97,0.00,OVC,FEW,0.00,0.0,WeatherDisplay:10.37,2013-10-19 08:17:00,
2013-10-19 10:22:00,43.2,42.6,29.00,SE,145,3.5,3.5,98,0.00,OVC,FEW,0.00,0.0,WeatherDisplay:10.37,2013-10-19 08:22:00,
2013-10-19 10:27:00,43.7,42.9,29.00,South,185,4.6,4.9,97,0.00,OVC,FEW,0.00,0.0,WeatherDisplay:10.37,2013-10-19 08:27:00,
2013-10-19 10:32:00,43.7,42.9,29.00,SW,215,4.6,4.6,97,0.00,OVC,FEW,0.00,0.0,WeatherDisplay:10.37,2013-10-19 08:32:00,
2013-10-19 10:37:00,43.7,42.9,29.00,SW,215,4.6,4.6,97,0.00,OVC,FEW,0.00,0.0,WeatherDisplay:10.37,2013-10-19 08:37:00,
2013-10-19 10:42:00,44.1,43.3,29.00,South,190,4.6,4.6,97,0.00,OVC,FEW,0.00,0.0,WeatherDisplay:10.37,2013-10-19 08:42:00,
2013-10-19 10:47:00,44.2,43.2,29.00,SSE,165,6.9,6.9,96,0.00,OVC,FEW,0.00,0.0,WeatherDisplay:10.37,2013-10-19 08:47:00,
2013-10-19 10:52:00,45.1,44.1,29.00,SSE,165,5.8,5.8,96,0.00,OVC,FEW,0.00,0.0,WeatherDisplay:10.37,2013-10-19 08:52:00,
2013-10-19 10:57:00,46.0,45.0,29.00,SSE,160,5.8,6.0,96,0.00,OVC,FEW,0.00,0.0,WeatherDisplay:10.37,2013-10-19 08:57:00,
2013-10-19 11:02:00,47.1,45.2,29.00,SSE,155,0.0,0.6,93,0.00,OVC,FEW,0.00,0.0,WeatherDisplay:10.37,2013-10-19 09:02:00,
2013-10-19 11:07:00,47.7,44.9,28.97,SW,220,3.5,3.5,90,0.00,OVC,FEW,0.00,0.0,WeatherDisplay:10.37,2013-10-19 09:07:00,
2013-10-19 11:12:00,47.7,44.9,28.97,SW,220,3.5,3.5,90,0.00,OVC,FEW,0.00,0.0,WeatherDisplay:10.37,2013-10-19 09:12:00,
2013-10-19 11:17:00,48.0,44.3,28.97,South,185,4.6,4.9,87,0.00,OVC,FEW,0.00,0.0,WeatherDisplay:10.37,2013-10-19 09:17:00,
2013-10-19 11:22:00,49.1,44.8,28.97,ESE,110,3.5,3.5,85,0.00,OVC,FEW,0.00,0.0,WeatherDisplay:10.37,2013-10-19 09:22:00,
2013-10-19 11:27:00,48.9,44.3,28.97,SW,225,6.9,6.9,84,0.00,OVC,FEW,0.00,0.0,WeatherDisplay:10.37,2013-10-19 09:27:00,
2013-10-19 11:32:00,49.5,44.5,28.94,SSE,165,5.8,6.2,83,0.00,OVC,FEW,0.00,0.0,WeatherDisplay:10.37,2013-10-19 09:32:00,
2013-10-19 11:37:00,49.5,44.5,28.94,SSE,165,5.8,6.2,83,0.00,OVC,FEW,0.00,0.0,WeatherDisplay:10.37,2013-10-19 09:37:00,
2013-10-19 11:42:00,49.6,44.4,28.94,SE,130,5.8,6.2,82,0.00,OVC,FEW,0.00,0.0,WeatherDisplay:10.37,2013-10-19 09:42:00,
2013-10-19 11:47:00,50.4,44.7,28.94,SSE,165,4.6,4.7,81,0.00,OVC,FEW,0.00,0.0,WeatherDisplay:10.37,2013-10-19 09:47:00,
2013-10-19 11:52:00,51.1,45.1,28.97,SW,235,4.6,4.9,80,0.00,OVC,FEW,0.00,0.0,WeatherDisplay:10.37,2013-10-19 09:52:00,
2013-10-19 11:57:00,51.1,45.1,28.97,South,170,6.9,6.9,80,0.00,OVC,FEW,0.00,0.0,WeatherDisplay:10.37,2013-10-19 09:57:00,
2013-10-19 12:02:00,51.1,44.8,28.97,SE,140,6.9,6.9,79,0.00,OVC,FEW,0.00,0.0,WeatherDisplay:10.37,2013-10-19 10:02:00,
2013-10-19 12:07:00,51.6,45.3,28.94,SE,130,8.1,8.1,79,0.00,OVC,FEW,0.00,0.0,WeatherDisplay:10.37,2013-10-19 10:07:00,
2013-10-19 12:12:00,51.6,45.3,28.94,SE,130,8.1,8.1,79,0.00,OVC,FEW,0.00,0.0,WeatherDisplay:10.37,2013-10-19 10:12:00,
2013-10-19 12:17:00,52.0,45.3,28.94,South,170,3.5,4.0,78,0.00,OVC,FEW,0.00,0.0,WeatherDisplay:10.37,2013-10-19 10:17:00,
2013-10-19 12:22:00,52.7,45.7,28.94,South,175,5.8,5.8,77,0.00,OVC,FEW,0.00,0.0,WeatherDisplay:10.37,2013-10-19 10:22:00,
2013-10-19 12:27:00,52.9,45.9,28.94,SSW,200,5.8,5.8,77,0.00,OVC,FEW,0.00,0.0,WeatherDisplay:10.37,2013-10-19 10:27:00,
2013-10-19 12:32:00,52.7,45.7,28.94,SW,225,9.2,9.2,77,0.00,OVC,FEW,0.00,0.0,WeatherDisplay:10.37,2013-10-19 10:32:00,
2013-10-19 12:37:00,52.7,45.7,28.94,SW,225,9.2,9.2,77,0.00,OVC,FEW,0.00,0.0,WeatherDisplay:10.37,2013-10-19 10:37:00,
2013-10-19 12:42:00,53.6,45.9,28.94,NNE,15,6.9,6.9,75,0.00,OVC,FEW,0.00,0.0,WeatherDisplay:10.37,2013-10-19 10:42:00,
2013-10-19 12:47:00,54.0,46.2,28.94,South,180,5.8,6.0,75,0.00,OVC,FEW,0.00,0.0,WeatherDisplay:10.37,2013-10-19 10:47:00,
2013-10-19 12:52:00,54.3,46.6,28.91,West,260,9.2,9.2,75,0.00,OVC,FEW,0.00,0.0,WeatherDisplay:10.37,2013-10-19 10:52:00,
2013-10-19 12:57:00,54.5,46.4,28.91,SSE,165,5.8,5.8,74,0.00,OVC,FEW,0.00,0.0,WeatherDisplay:10.37,2013-10-19 10:57:00,
2013-10-19 13:02:00,54.7,46.2,28.91,South,170,5.8,5.8,73,0.00,OVC,FEW,0.00,0.0,WeatherDisplay:10.37,2013-10-19 11:02:00,
2013-10-19 13:07:00,55.2,46.3,28.94,SW,230,6.9,7.0,72,0.00,OVC,FEW,0.00,0.0,WeatherDisplay:10.37,2013-10-19 11:07:00,
2013-10-19 13:12:00,55.2,46.3,28.94,SW,230,6.9,7.0,72,0.00,OVC,FEW,0.00,0.0,WeatherDisplay:10.37,2013-10-19 11:12:00,
2013-10-19 13:17:00,55.9,46.3,28.94,SSW,205,4.6,4.9,70,0.00,OVC,FEW,0.00,0.0,WeatherDisplay:10.37,2013-10-19 11:17:00,
2013-10-19 13:22:00,56.1,46.5,28.94,South,185,5.8,6.2,70,0.00,OVC,FEW,0.00,0.0,WeatherDisplay:10.37,2013-10-19 11:22:00,
2013-10-19 13:27:00,56.8,46.4,28.94,SW,215,6.9,7.1,68,0.00,OVC,FEW,0.00,0.0,WeatherDisplay:10.37,2013-10-19 11:27:00,
2013-10-19 13:32:00,57.0,46.6,28.91,SSE,165,6.9,6.9,68,0.00,OVC,FEW,0.00,0.0,WeatherDisplay:10.37,2013-10-19 11:32:00,
2013-10-19 13:37:00,57.0,46.6,28.91,SSE,165,6.9,6.9,68,0.00,OVC,FEW,0.00,0.0,WeatherDisplay:10.37,2013-10-19 11:37:00,
2013-10-19 13:42:00,56.8,46.0,28.91,SSW,210,6.9,6.9,67,0.00,OVC,FEW,0.00,0.0,WeatherDisplay:10.37,2013-10-19 11:42:00,
2013-10-19 13:47:00,57.0,46.2,28.91,WNW,300,2.3,2.4,67,0.00,OVC,FEW,0.00,0.0,WeatherDisplay:10.37,2013-10-19 11:47:00,
2013-10-19 13:52:00,57.2,46.3,28.91,WNW,285,8.1,8.1,67,0.00,OVC,FEW,0.00,0.0,WeatherDisplay:10.37,2013-10-19 11:52:00,
2013-10-19 13:57:00,57.9,47.0,28.91,SW,235,4.6,5.1,67,0.00,OVC,FEW,0.00,0.0,WeatherDisplay:10.37,2013-10-19 11:57:00,
2013-10-19 14:02:00,58.3,47.8,28.91,SSE,150,4.6,4.6,68,0.00,OVC,FEW,0.00,0.0,WeatherDisplay:10.37,2013-10-19 12:02:00,
2013-10-19 14:07:00,58.3,46.6,28.91,SW,220,6.9,6.9,65,0.00,OVC,FEW,0.00,0.0,WeatherDisplay:10.37,2013-10-19 12:07:00,
2013-10-19 14:12:00,58.3,46.6,28.91,SW,220,6.9,6.9,65,0.00,OVC,FEW,0.00,0.0,WeatherDisplay:10.37,2013-10-19 12:12:00,
2013-10-19 14:17:00,58.5,46.7,28.91,NW,305,4.6,4.6,65,0.00,OVC,FEW,0.00,0.0,WeatherDisplay:10.37,2013-10-19 12:17:00,
2013-10-19 14:22:00,59.0,47.2,28.91,NNE,15,1.1,1.1,65,0.00,OVC,FEW,0.00,0.0,WeatherDisplay:10.37,2013-10-19 12:22:00,
2013-10-19 14:27:00,58.6,47.3,28.91,SSE,165,4.6,4.6,66,0.00,OVC,FEW,0.00,0.0,WeatherDisplay:10.37,2013-10-19 12:27:00,
2013-10-19 14:32:00,58.1,46.8,28.91,South,180,4.6,5.1,66,0.00,OVC,FEW,0.00,0.0,WeatherDisplay:10.37,2013-10-19 12:32:00,
2013-10-19 14:37:00,58.1,46.8,28.91,South,180,4.6,5.1,66,0.00,OVC,FEW,0.00,0.0,WeatherDisplay:10.37,2013-10-19 12:37:00,
2013-10-19 14:42:00,58.1,46.8,28.91,SW,230,9.2,9.4,66,0.00,OVC,FEW,0.00,0.0,WeatherDisplay:10.37,2013-10-19 12:42:00,
2013-10-19 14:47:00,58.6,47.3,28.91,SSW,210,4.6,4.6,66,0.00,OVC,FEW,0.00,0.0,WeatherDisplay:10.37,2013-10-19 12:47:00,
2013-10-19 14:52:00,58.5,46.7,28.88,SW,235,8.1,8.1,65,0.00,OVC,FEW,0.00,0.0,WeatherDisplay:10.37,2013-10-19 12:52:00,
2013-10-19 14:57:00,57.9,46.2,28.88,SW,235,3.5,4.0,65,0.00,OVC,FEW,0.00,0.0,WeatherDisplay:10.37,2013-10-19 12:57:00,
2013-10-19 15:02:00,58.3,47.0,28.88,SSW,205,3.5,3.5,66,0.00,OVC,FEW,0.00,0.0,WeatherDisplay:10.37,2013-10-19 13:02:00,
2013-10-19 15:07:00,59.0,47.2,28.88,SSE,155,5.8,5.8,65,0.00,OVC,FEW,0.00,0.0,WeatherDisplay:10.37,2013-10-19 13:07:00,
2013-10-19 15:12:00,59.0,47.2,28.88,SSE,155,5.8,5.8,65,0.00,OVC,FEW,0.00,0.0,WeatherDisplay:10.37,2013-10-19 13:12:00,
2013-10-19 15:17:00,59.4,47.6,28.88,South,190,5.8,6.0,65,0.00,OVC,FEW,0.00,0.0,WeatherDisplay:10.37,2013-10-19 13:17:00,
2013-10-19 15:22:00,59.4,47.6,28.88,South,190,5.8,6.0,65,0.00,OVC,FEW,0.00,0.0,WeatherDisplay:10.37,2013-10-19 13:22:00,
2013-10-19 15:27:00,59.5,47.3,28.88,SW,220,3.5,3.5,64,0.00,OVC,FEW,0.00,0.0,WeatherDisplay:10.37,2013-10-19 13:27:00,
2013-10-19 15:32:00,59.4,47.2,28.88,South,185,6.9,6.9,64,0.00,OVC,FEW,0.00,0.0,WeatherDisplay:10.37,2013-10-19 13:32:00,
2013-10-19 15:37:00,59.4,47.2,28.88,South,185,6.9,6.9,64,0.00,OVC,FEW,0.00,0.0,WeatherDisplay:10.37,2013-10-19 13:37:00,
2013-10-19 15:42:00,59.7,47.5,28.88,SSE,155,4.6,4.9,64,0.00,OVC,FEW,0.00,0.0,WeatherDisplay:10.37,2013-10-19 13:42:00,
2013-10-19 15:47:00,60.4,48.2,28.88,South,185,3.5,3.5,64,0.00,OVC,FEW,0.00,0.0,WeatherDisplay:10.37,2013-10-19 13:47:00,
2013-10-19 15:52:00,60.3,47.6,28.88,SSE,160,4.6,4.6,63,0.00,OVC,FEW,0.00,0.0,WeatherDisplay:10.37,2013-10-19 13:52:00,
2013-10-19 15:57:00,60.8,48.1,28.88,WNW,300,3.5,3.5,63,0.00,OVC,FEW,0.00,0.0,WeatherDisplay:10.37,2013-10-19 13:57:00,
2013-10-19 16:02:00,60.4,48.2,28.88,SW,230,3.5,3.5,64,0.00,OVC,FEW,0.00,0.0,WeatherDisplay:10.37,2013-10-19 14:02:00,
2013-10-19 16:07:00,60.4,47.8,28.88,SW,225,3.5,3.5,63,0.00,OVC,FEW,0.00,0.0,WeatherDisplay:10.37,2013-10-19 14:07:00,
2013-10-19 16:12:00,60.4,47.8,28.88,SW,225,3.5,3.5,63,0.00,OVC,FEW,0.00,0.0,WeatherDisplay:10.37,2013-10-19 14:12:00,
2013-10-19 16:17:00,60.3,47.6,28.88,SE,135,3.5,3.5,63,0.00,OVC,FEW,0.00,0.0,WeatherDisplay:10.37,2013-10-19 14:17:00,
2013-10-19 16:22:00,59.7,47.9,28.85,South,185,5.8,5.8,65,0.00,OVC,FEW,0.00,0.0,WeatherDisplay:10.37,2013-10-19 14:22:00,
2013-10-19 16:27:00,59.9,47.7,28.85,SSE,160,1.1,1.5,64,0.00,OVC,FEW,0.00,0.0,WeatherDisplay:10.37,2013-10-19 14:27:00,
2013-10-19 16:32:00,60.8,48.5,28.85,SSW,195,1.1,1.3,64,0.00,OVC,FEW,0.00,0.0,WeatherDisplay:10.37,2013-10-19 14:32:00,
2013-10-19 16:37:00,60.8,48.5,28.85,SSW,195,1.1,1.3,64,0.00,OVC,FEW,0.00,0.0,WeatherDisplay:10.37,2013-10-19 14:37:00,
2013-10-19 16:42:00,61.0,47.9,28.85,NE,40,3.5,3.5,62,0.00,OVC,FEW,0.00,0.0,WeatherDisplay:10.37,2013-10-19 14:42:00,
2013-10-19 16:47:00,60.1,47.0,28.85,SSE,160,3.5,3.5,62,0.00,OVC,FEW,0.00,0.0,WeatherDisplay:10.37,2013-10-19 14:47:00,
2013-10-19 16:52:00,59.2,46.6,28.88,SSE,165,5.8,5.8,63,0.00,OVC,FEW,0.00,0.0,WeatherDisplay:10.37,2013-10-19 14:52:00,
2013-10-19 16:57:00,59.0,46.4,28.88,South,190,3.5,3.5,63,0.00,OVC,FEW,0.00,0.0,WeatherDisplay:10.37,2013-10-19 14:57:00,
2013-10-19 17:02:00,59.0,46.4,28.88,South,190,3.5,3.5,63,0.00,OVC,FEW,0.00,0.0,WeatherDisplay:10.37,2013-10-19 15:02:00,
2013-10-19 17:07:00,59.0,46.4,28.88,West,270,1.1,1.7,63,0.00,OVC,FEW,0.00,0.0,WeatherDisplay:10.37,2013-10-19 15:07:00,
2013-10-19 17:12:00,59.0,46.4,28.88,West,270,1.1,1.7,63,0.00,OVC,FEW,0.00,0.0,WeatherDisplay:10.37,2013-10-19 15:12:00,
2013-10-19 17:17:00,58.5,46.7,28.88,NNW,335,3.5,3.5,65,0.00,OVC,FEW,0.00,0.0,WeatherDisplay:10.37,2013-10-19 15:17:00,
2013-10-19 17:22:00,58.6,46.9,28.88,West,270,0.0,0.2,65,0.00,OVC,FEW,0.00,0.0,WeatherDisplay:10.37,2013-10-19 15:22:00,
2013-10-19 17:27:00,57.7,46.5,28.88,SW,225,3.5,3.5,66,0.00,OVC,FEW,0.00,0.0,WeatherDisplay:10.37,2013-10-19 15:27:00,
2013-10-19 17:32:00,57.6,46.7,28.85,SW,215,0.0,0.0,67,0.00,OVC,FEW,0.00,0.0,WeatherDisplay:10.37,2013-10-19 15:32:00,
2013-10-19 17:37:00,57.6,46.7,28.85,SW,215,0.0,0.0,67,0.00,OVC,FEW,0.00,0.0,WeatherDisplay:10.37,2013-10-19 15:37:00,
2013-10-19 17:42:00,56.8,46.4,28.85,West,270,1.1,1.1,68,0.00,OVC,FEW,0.00,0.0,WeatherDisplay:10.37,2013-10-19 15:42:00,
2013-10-19 17:47:00,56.3,46.3,28.85,WSW,240,2.3,2.3,69,0.00,OVC,FEW,0.00,0.0,WeatherDisplay:10.37,2013-10-19 15:47:00,
2013-10-19 17:52:00,55.8,46.1,28.88,NW,315,1.1,1.3,70,0.00,OVC,FEW,0.00,0.0,WeatherDisplay:10.37,2013-10-19 15:52:00,
2013-10-19 17:57:00,55.4,46.2,28.88,WNW,300,0.0,0.0,71,0.00,OVC,FEW,0.00,0.0,WeatherDisplay:10.37,2013-10-19 15:57:00,
2013-10-19 18:02:00,54.7,45.8,28.88,NNW,335,0.0,0.0,72,0.00,OVC,FEW,0.00,0.0,WeatherDisplay:10.37,2013-10-19 16:02:00,
2013-10-19 18:07:00,53.6,45.5,28.88,WNW,285,0.0,0.0,74,0.00,OVC,FEW,0.00,0.0,WeatherDisplay:10.37,2013-10-19 16:07:00,
2013-10-19 18:12:00,53.6,45.5,28.88,WNW,285,0.0,0.0,74,0.00,OVC,FEW,0.00,0.0,WeatherDisplay:10.37,2013-10-19 16:12:00,
2013-10-19 18:17:00,53.1,45.3,28.88,North,350,0.0,0.0,75,0.00,OVC,FEW,0.00,0.0,WeatherDisplay:10.37,2013-10-19 16:17:00,
2013-10-19 18:22:00,52.2,44.8,28.88,WNW,295,0.0,0.0,76,0.00,OVC,FEW,0.00,0.0,WeatherDisplay:10.37,2013-10-19 16:22:00,
2013-10-19 18:27:00,51.3,45.0,28.88,SW,225,0.0,0.0,79,0.00,OVC,FEW,0.00,0.0,WeatherDisplay:10.37,2013-10-19 16:27:00,
2013-10-19 18:32:00,50.9,44.9,28.88,SW,225,0.0,0.0,80,0.00,OVC,FEW,0.00,0.0,WeatherDisplay:10.37,2013-10-19 16:32:00,
2013-10-19 18:37:00,50.9,44.9,28.88,SW,225,0.0,0.0,80,0.00,CLR,FEW,0.00,0.0,WeatherDisplay:10.37,2013-10-19 16:37:00,
2013-10-19 18:42:00,50.2,44.6,28.88,WSW,245,0.0,0.0,81,0.00,CLR,FEW,0.00,0.0,WeatherDisplay:10.37,2013-10-19 16:42:00,
2013-10-19 18:47:00,50.2,44.9,28.88,West,260,0.0,0.0,82,0.00,CLR,FEW,0.00,0.0,WeatherDisplay:10.37,2013-10-19 16:47:00,
2013-10-19 18:52:00,49.6,44.4,28.88,West,270,0.0,0.0,82,0.00,CLR,FEW,0.00,0.0,WeatherDisplay:10.37,2013-10-19 16:52:00,
2013-10-19 18:57:00,48.7,43.8,28.88,SW,225,0.0,0.0,83,0.00,CLR,FEW,0.00,0.0,WeatherDisplay:10.37,2013-10-19 16:57:00,
2013-10-19 19:02:00,48.7,44.1,28.88,SW,215,0.0,0.0,84,0.00,CLR,FEW,0.00,0.0,WeatherDisplay:10.37,2013-10-19 17:02:00,
2013-10-19 19:07:00,48.4,44.1,28.88,WNW,285,0.0,0.0,85,0.00,CLR,FEW,0.00,0.0,WeatherDisplay:10.37,2013-10-19 17:07:00,
2013-10-19 19:12:00,48.4,44.1,28.88,WNW,285,0.0,0.0,85,0.00,CLR,FEW,0.00,0.0,WeatherDisplay:10.37,2013-10-19 17:12:00,
2013-10-19 19:17:00,48.0,44.0,28.88,WNW,285,0.0,0.0,86,0.00,CLR,FEW,0.00,0.0,WeatherDisplay:10.37,2013-10-19 17:17:00,
2013-10-19 19:22:00,47.5,43.5,28.88,West,270,0.0,0.0,86,0.00,CLR,FEW,0.00,0.0,WeatherDisplay:10.37,2013-10-19 17:22:00,
2013-10-19 19:27:00,47.5,43.8,28.88,WNW,300,0.0,0.0,87,0.00,CLR,FEW,0.00,0.0,WeatherDisplay:10.37,2013-10-19 17:27:00,
2013-10-19 19:32:00,47.3,43.6,28.88,SW,235,0.0,0.0,87,0.00,CLR,FEW,0.00,0.0,WeatherDisplay:10.37,2013-10-19 17:32:00,
2013-10-19 19:37:00,47.3,43.6,28.88,SW,235,0.0,0.0,87,0.00,CLR,FEW,0.00,0.0,WeatherDisplay:10.37,2013-10-19 17:37:00,
2013-10-19 19:42:00,47.1,43.4,28.88,SW,225,0.0,0.0,87,0.00,CLR,FEW,0.00,0.0,WeatherDisplay:10.37,2013-10-19 17:42:00,
2013-10-19 19:47:00,46.4,43.0,28.88,SW,225,0.0,0.0,88,0.00,CLR,FEW,0.00,0.0,WeatherDisplay:10.37,2013-10-19 17:47:00,
2013-10-19 19:52:00,46.2,42.9,28.88,SW,225,0.0,0.0,88,0.00,CLR,FEW,0.00,0.0,WeatherDisplay:10.37,2013-10-19 17:52:00,
2013-10-19 19:57:00,46.2,43.2,28.88,SW,225,0.0,0.0,89,0.00,CLR,FEW,0.00,0.0,WeatherDisplay:10.37,2013-10-19 17:57:00,
2013-10-19 20:02:00,46.0,43.0,28.88,NW,310,0.0,0.0,89,0.00,CLR,FEW,0.00,0.0,WeatherDisplay:10.37,2013-10-19 18:02:00,
2013-10-19 20:07:00,45.7,42.9,28.88,NNW,335,0.0,0.0,90,0.00,CLR,FEW,0.00,0.0,WeatherDisplay:10.37,2013-10-19 18:07:00,
2013-10-19 20:12:00,45.7,42.9,28.88,NNW,335,0.0,0.0,90,0.00,CLR,FEW,0.00,0.0,WeatherDisplay:10.37,2013-10-19 18:12:00,
2013-10-19 20:17:00,45.5,42.7,28.88,NNE,20,0.0,0.0,90,0.00,CLR,FEW,0.00,0.0,WeatherDisplay:10.37,2013-10-19 18:17:00,
2013-10-19 20:22:00,44.8,42.0,28.88,NW,325,0.0,0.0,90,0.00,CLR,FEW,0.00,0.0,WeatherDisplay:10.37,2013-10-19 18:22:00,
2013-10-19 20:27:00,44.4,42.0,28.88,NW,325,0.0,0.0,91,0.00,CLR,FEW,0.00,0.0,WeatherDisplay:10.37,2013-10-19 18:27:00,
2013-10-19 20:32:00,44.2,41.8,28.88,WNW,300,0.0,0.0,91,0.00,CLR,FEW,0.00,0.0,WeatherDisplay:10.37,2013-10-19 18:32:00,
2013-10-19 20:37:00,44.2,41.8,28.88,WNW,300,0.0,0.0,91,0.00,CLR,FEW,0.00,0.0,WeatherDisplay:10.37,2013-10-19 18:37:00,
2013-10-19 20:42:00,44.2,42.1,28.88,NW,305,0.0,0.0,92,0.00,CLR,FEW,0.00,0.0,WeatherDisplay:10.37,2013-10-19 18:42:00,
2013-10-19 20:47:00,44.2,42.1,28.88,NW,320,0.0,0.0,92,0.00,CLR,FEW,0.00,0.0,WeatherDisplay:10.37,2013-10-19 18:47:00,
2013-10-19 20:52:00,44.4,42.2,28.88,NW,305,0.0,0.0,92,0.00,CLR,FEW,0.00,0.0,WeatherDisplay:10.37,2013-10-19 18:52:00,
2013-10-19 20:57:00,44.2,42.1,28.88,NW,305,0.0,0.0,92,0.00,CLR,FEW,0.00,0.0,WeatherDisplay:10.37,2013-10-19 18:57:00,
2013-10-19 21:02:00,44.4,42.5,28.88,NW,305,0.0,0.0,93,0.00,CLR,FEW,0.00,0.0,WeatherDisplay:10.37,2013-10-19 19:02:00,
2013-10-19 21:07:00,44.8,42.9,28.88,West,270,0.0,0.0,93,0.00,CLR,FEW,0.00,0.0,WeatherDisplay:10.37,2013-10-19 19:07:00,
2013-10-19 21:12:00,44.8,42.9,28.88,West,270,0.0,0.0,93,0.00,CLR,FEW,0.00,0.0,WeatherDisplay:10.37,2013-10-19 19:12:00,
2013-10-19 21:17:00,44.8,42.9,28.88,West,270,0.0,0.0,93,0.00,CLR,FEW,0.00,0.0,WeatherDisplay:10.37,2013-10-19 19:17:00,
2013-10-19 21:22:00,45.0,43.3,28.88,West,270,0.0,0.0,94,0.00,CLR,FEW,0.00,0.0,WeatherDisplay:10.37,2013-10-19 19:22:00,
2013-10-19 21:27:00,44.6,43.0,28.88,NNW,330,0.0,0.0,94,0.00,CLR,FEW,0.00,0.0,WeatherDisplay:10.37,2013-10-19 19:27:00,
2013-10-19 21:32:00,44.6,43.0,28.88,NNW,330,0.0,0.0,94,0.00,CLR,FEW,0.00,0.0,WeatherDisplay:10.37,2013-10-19 19:32:00,
2013-10-19 21:37:00,44.6,43.0,28.88,NNW,330,0.0,0.0,94,0.00,CLR,FEW,0.00,0.0,WeatherDisplay:10.37,2013-10-19 19:37:00,
2013-10-19 21:42:00,44.1,42.4,28.88,NNW,330,0.0,0.4,94,0.00,CLR,FEW,0.00,0.0,WeatherDisplay:10.37,2013-10-19 19:42:00,
2013-10-19 21:47:00,43.5,41.6,28.88,WNW,300,0.0,0.0,93,0.00,CLR,FEW,0.00,0.0,WeatherDisplay:10.37,2013-10-19 19:47:00,
2013-10-19 21:52:00,43.2,41.3,28.88,West,275,0.0,0.0,93,0.00,CLR,FEW,0.00,0.0,WeatherDisplay:10.37,2013-10-19 19:52:00,
2013-10-19 21:57:00,43.7,42.1,28.88,WNW,285,0.0,0.0,94,0.00,CLR,FEW,0.00,0.0,WeatherDisplay:10.37,2013-10-19 19:57:00,
2013-10-19 22:02:00,43.3,41.7,28.88,West,260,0.0,0.0,94,0.00,CLR,FEW,0.00,0.0,WeatherDisplay:10.37,2013-10-19 20:02:00,
2013-10-19 22:07:00,43.5,41.9,28.88,West,260,0.0,0.0,94,0.00,CLR,FEW,0.00,0.0,WeatherDisplay:10.37,2013-10-19 20:07:00,
2013-10-19 22:12:00,43.5,41.9,28.88,West,260,0.0,0.0,94,0.00,CLR,FEW,0.00,0.0,WeatherDisplay:10.37,2013-10-19 20:12:00,
2013-10-19 22:17:00,43.9,42.3,28.88,North,10,0.0,0.4,94,0.00,CLR,FEW,0.00,0.0,WeatherDisplay:10.37,2013-10-19 20:17:00,
2013-10-19 22:22:00,43.3,41.7,28.88,NNW,345,0.0,0.0,94,0.00,CLR,FEW,0.00,0.0,WeatherDisplay:10.37,2013-10-19 20:22:00,
2013-10-19 22:27:00,43.5,41.9,28.88,NNE,20,0.0,0.0,94,0.00,CLR,FEW,0.00,0.0,WeatherDisplay:10.37,2013-10-19 20:27:00,
2013-10-19 22:32:00,44.4,43.1,28.88,East,85,1.1,1.7,95,0.00,CLR,FEW,0.00,0.0,WeatherDisplay:10.37,2013-10-19 20:32:00,
2013-10-19 22:37:00,44.4,43.1,28.88,East,85,1.1,1.7,95,0.00,CLR,FEW,0.00,0.0,WeatherDisplay:10.37,2013-10-19 20:37:00,
2013-10-19 22:42:00,45.3,44.0,28.88,SW,235,0.0,0.2,95,0.00,CLR,FEW,0.00,0.0,WeatherDisplay:10.37,2013-10-19 20:42:00,
2013-10-19 22:47:00,45.0,43.6,28.88,SW,235,0.0,0.0,95,0.00,CLR,FEW,0.00,0.0,WeatherDisplay:10.37,2013-10-19 20:47:00,
2013-10-19 22:52:00,45.1,43.8,28.88,SW,235,0.0,0.0,95,0.00,CLR,FEW,0.00,0.0,WeatherDisplay:10.37,2013-10-19 20:52:00,
2013-10-19 22:57:00,46.0,44.7,28.88,WSW,250,0.0,0.0,95,0.00,CLR,FEW,0.00,0.0,WeatherDisplay:10.37,2013-10-19 20:57:00,
2013-10-19 23:02:00,46.0,44.7,28.88,WSW,250,0.0,0.0,95,0.00,CLR,FEW,0.00,0.0,WeatherDisplay:10.37,2013-10-19 21:02:00,
2013-10-19 23:07:00,45.5,44.2,28.88,WNW,290,0.0,0.0,95,0.00,CLR,FEW,0.00,0.0,WeatherDisplay:10.37,2013-10-19 21:07:00,
2013-10-19 23:12:00,45.5,44.2,28.88,WNW,290,0.0,0.0,95,0.00,CLR,FEW,0.00,0.0,WeatherDisplay:10.37,2013-10-19 21:12:00,
2013-10-19 23:17:00,45.3,44.0,28.88,WNW,290,0.0,0.0,95,0.00,CLR,FEW,0.00,0.0,WeatherDisplay:10.37,2013-10-19 21:17:00,
2013-10-19 23:22:00,45.3,44.0,28.88,West,270,0.0,0.0,95,0.00,CLR,FEW,0.00,0.0,WeatherDisplay:10.37,2013-10-19 21:22:00,
2013-10-19 23:27:00,45.5,44.2,28.88,West,270,0.0,0.0,95,0.00,CLR,FEW,0.00,0.0,WeatherDisplay:10.37,2013-10-19 21:27:00,
2013-10-19 23:32:00,45.0,43.3,28.88,West,270,0.0,0.0,94,0.00,CLR,FEW,0.00,0.0,WeatherDisplay:10.37,2013-10-19 21:32:00,
2013-10-19 23:37:00,45.0,43.3,28.88,West,270,0.0,0.0,94,0.00,CLR,FEW,0.00,0.0,WeatherDisplay:10.37,2013-10-19 21:37:00,
2013-10-19 23:42:00,44.4,42.8,28.88,West,270,0.0,0.0,94,0.00,CLR,FEW,0.00,0.0,WeatherDisplay:10.37,2013-10-19 21:42:00,
2013-10-19 23:47:00,43.7,42.1,28.88,West,270,0.0,0.0,94,0.00,CLR,FEW,0.00,0.0,WeatherDisplay:10.37,2013-10-19 21:47:00,
2013-10-19 23:52:00,43.5,41.9,28.88,West,270,0.0,0.0,94,0.00,CLR,FEW,0.00,0.0,WeatherDisplay:10.37,2013-10-19 21:52:00,
2013-10-19 23:57:00,43.7,42.1,28.88,West,270,0.0,0.0,94,0.00,CLR,FEW,0.00,0.0,WeatherDisplay:10.37,2013-10-19 21:57:00,